Flag Weather past 2 weeks in Garmisch-Partenkirchen, Bavaria, Germany

Now
43 °F

Passing clouds.


Feels Like: 43 °F
Forecast: 35 / 57 °F
Wind: 1 mph from North

Location: Innsbruck-Flughafen

Current Time: Nov 21, 2014 at 8:26:47 PM

Latest Report: Nov 21, 2014 at 7:50 PM


Visibility: N/A

Pressure: 30.18 "Hg

Humidity: 87%

Dew point: 39 °F

Location of Garmisch-PartenkirchenLocation

Historic Weather in Garmisch-Partenkirchen — Graph

°F

Garmisch-Partenkirchen temperature yesterday

Maximum temperature yesterday: 50 °F (at 2:50 PM)
Minimum temperature yesterday: 34 °F (at 5:50 AM)
Average temperature yesterday: 39 °F

Past Weeks' High & Low Weather Summary

 TemperatureHumidityPressure
High64 °F (Nov 10, 1:20 PM)100% (Nov 7, 1:50 AM)30.33 "Hg (Nov 7, 1:50 AM)
Low34 °F (Nov 20, 5:50 AM)42% (Nov 15, 11:20 AM)29.47 "Hg (Nov 15, 8:20 PM)
Average47 °F81%29.86 "Hg
* Reported Nov 6 6:20 PM — Nov 21 6:50 PM, Garmisch-Partenkirchen, Weather by CustomWeather, © 2014

Note: Actual official high and low records may vary slightly from our data, if they occured in-between our weather recording intervals... More about our weather records

Advertising

Garmisch-Partenkirchen weather history for previous 24 hours

 ConditionsComfort  
Time TempWeatherWind HumidityBarometerVisibility
6:50 PM
Nov 21
41 °FPassing clouds.3 mph93%30.18 "HgN/A
6:20 PM43 °FPassing clouds.2 mph87%30.15 "HgN/A
5:50 PM43 °FPassing clouds.2 mph81%30.15 "HgN/A
5:20 PM43 °FPassing clouds.1 mph87%30.15 "HgN/A
4:50 PM45 °FPassing clouds.2 mph76%30.15 "HgN/A
4:20 PM46 °FPartly sunny.1 mph71%30.15 "HgN/A
3:50 PM46 °FPartly sunny.No wind71%30.15 "HgN/A
3:20 PM48 °FPartly sunny.2 mph66%30.15 "HgN/A
2:50 PM46 °FPartly sunny.2 mph71%30.15 "HgN/A
2:20 PM45 °FPartly sunny.1 mph76%30.15 "HgN/A
1:50 PM45 °FPartly sunny.2 mph76%30.15 "HgN/A
1:20 PM45 °FPartly sunny.1 mph76%30.15 "HgN/A
12:50 PM45 °FPartly sunny.1 mph76%30.18 "HgN/A
12:20 PM43 °FPartly sunny.1 mph81%30.18 "HgN/A
11:50 AM43 °FPartly sunny.3 mph81%30.18 "HgN/A
11:20 AM41 °FPartly sunny.2 mph87%30.18 "HgN/A
10:50 AM41 °FBroken clouds.1 mph87%30.21 "HgN/A
10:20 AM41 °FBroken clouds.1 mph87%30.21 "HgN/A
9:50 AM41 °FBroken clouds.1 mph81%30.21 "HgN/A
9:20 AM39 °FPartly sunny.1 mph93%30.21 "HgN/A
8:50 AM39 °FPartly sunny.1 mph87%30.21 "HgN/A
8:20 AM39 °FPartly sunny.1 mph87%30.21 "HgN/A
7:50 AM37 °FPartly sunny.1 mph93%30.21 "HgN/A
7:20 AM37 °FPassing clouds.1 mph93%30.21 "HgN/A
6:50 AM37 °FPassing clouds.2 mph93%30.21 "HgN/A
6:20 AM37 °FPassing clouds.1 mph93%30.21 "HgN/A
5:50 AM37 °FPassing clouds.2 mph93%30.21 "HgN/A
5:20 AM37 °FPassing clouds.1 mph93%30.21 "HgN/A
4:50 AM37 °FPassing clouds.2 mph93%30.21 "HgN/A
4:20 AM37 °FPassing clouds.1 mph93%30.21 "HgN/A
3:50 AM37 °FPartly cloudy.1 mph93%30.21 "HgN/A
3:20 AM37 °FOvercast.No wind93%30.24 "HgN/A
2:50 AM37 °FPassing clouds.1 mph93%30.24 "HgN/A
2:20 AM37 °FPassing clouds.2 mph93%30.24 "HgN/A
1:50 AM37 °FOvercast.1 mph93%30.24 "HgN/A
1:20 AM37 °FPassing clouds.1 mph93%30.24 "HgN/A
12:50 AM37 °FPassing clouds.1 mph87%30.24 "HgN/A
12:20 AM37 °FPassing clouds.1 mph87%30.24 "HgN/A
11:50 PM
Nov 20
37 °FPassing clouds.1 mph87%30.24 "HgN/A
11:20 PM37 °FPassing clouds.1 mph87%30.24 "HgN/A
10:50 PM37 °FClear.2 mph87%30.27 "Hg10 mi
10:20 PM37 °FClear.2 mph87%30.27 "Hg10 mi
9:50 PM36 °FPassing clouds.2 mph93%30.27 "HgN/A
9:20 PM36 °FPassing clouds.2 mph93%30.27 "HgN/A
8:50 PM37 °FPassing clouds.1 mph87%30.27 "HgN/A
8:20 PM37 °FPassing clouds.2 mph87%30.24 "HgN/A
Weather by CustomWeather, © 2014

See weather overviewHow to use our weather pages